Regional Weather Roundup
Issued by NWS

Home | Current Version | Previous Version | Text Only | Print | Product List | Glossary On
Versions: 1 2 3 4 5 6 7 8 9 10 11 12 13 14 15 16 17 18 19 20 21 22 23 24 25 26 27 28 29 30 31 32 33 34 35 36 37 38 39 40 41 42 43 44 45 46 47 48 49 50
000
ASUS45 KPSR 041110
RWRAZ

ARIZONA REGIONAL HOURLY WEATHER ROUNDUP
NATIONAL WEATHER SERVICE PHOENIX AZ
400 AM MST MON MAY 04 2015

NOTE: FAIR INDICATES FEW OR NO CLOUDS BELOW 12,000 FEET WITH NO
SIGNIFICANT WEATHER AND/OR OBSTRUCTIONS TO VISIBILITY.

AZZ001>003-036-041200-
NORTHWEST ARIZONA

CITY           SKY/WX    TMP DP  RH WIND       PRES   REMARKS
BULLHEAD CITY  PTCLDY    77  43  29 CALM      29.74S
KINGMAN        PTCLDY    64  41  42 S10       29.87S
$$

AZZ004>008-015-016-018-041200-
NORTH CENTRAL ARIZONA

CITY           SKY/WX    TMP DP  RH WIND       PRES   REMARKS
GRAND CANYON   MOCLDY    32  30  92 CALM      30.04F
WILLIAMS       PTCLDY    46  37  71 SE12      30.10S
PRESCOTT       CLOUDY    57  41  55 SE5       29.97R
FLAGSTAFF      MOCLDY    43  38  82 NE3       30.06S
PAYSON         LGT RAIN  52  48  87 VRB3      30.05S
PAGE           CLOUDY    60  39  45 CALM      29.94S
$$

AZZ009>014-017-041200-
NORTHEAST ARIZONA

CITY           SKY/WX    TMP DP  RH WIND       PRES   REMARKS
WINSLOW        MOCLDY    53  40  61 CALM      29.99S
SAINT JOHNS    PTCLDY    49  38  65 S8        30.00S
WINDOW ROCK    MOCLDY    49  38  65 E3        30.04F
SHOW LOW       CLOUDY    45  37  76 E6        30.05F
$$

AZZ023-041200-
GREATER PHOENIX AREA

CITY           SKY/WX    TMP DP  RH WIND       PRES   REMARKS
PHOENIX        CLOUDY    67  60  78 S8        29.89R THUNDER
BUCKEYE        CLOUDY    66  64  94 E17       29.86R
LUKE AFB       CLOUDY    67  60  78 E10       29.85R
DEER VALLEY    LGT RAIN  62  57  83 NE14G23   29.86F
SCOTTSDALE     LGT RAIN  65  57  75 NE10      29.89R
MESA-GATEWAY   CLOUDY    64  57  77 NE14      29.88R
$$

AZZ027-028-041200-
SOUTHWEST MARICOPA COUNTY AND PINAL COUNTY

CITY           SKY/WX    TMP DP  RH WIND       PRES   REMARKS
CASA GRANDE    MOCLDY    64  55  72 N6        29.84S
GILA BEND      CLOUDY    73  53  49 E16       29.80R
$$

AZZ503-504-507>509-041200-
SOUTHEAST ARIZONA

CITY           SKY/WX    TMP DP  RH WIND       PRES   REMARKS
TUCSON         CLEAR     67  51  56 CALM      29.88S
DAVIS-MONTHAN  CLEAR     65  50  58 CALM      29.86S
NOGALES        PTCLDY    56  46  69 CALM      29.91F
SIERRA VISTA   PTCLDY    60  44  55 E3        29.95S
DOUGLAS        PTCLDY    58  43  57 E7        29.94S
SAFFORD        PTCLDY    63  50  62 W16       29.86R
$$

AZZ020-021-025-026-031-041200-
SOUTHWEST ARIZONA

CITY           SKY/WX    TMP DP  RH WIND       PRES   REMARKS
YUMA           CLEAR     71  57  61 S10       29.74S
$$

CAZ031-033-041-043-047-048-061-041200-
SOUTHERN CALIFORNIA

CITY           SKY/WX    TMP DP  RH WIND       PRES   REMARKS
DOWNTOWN L.A.  CLEAR     57  51  80 CALM      29.92S
L.A. AIRPORT   PTCLDY    57  51  80 SW6       29.92F
SAN DIEGO      CLOUDY    63  54  72 NW5       29.92F
BURBANK        PTCLDY    56  48  74 CALM      29.91F
ONTARIO        CLOUDY    57  49  74 W5        29.91F
RIVERSIDE      CLOUDY    55  48  77 CALM      29.92S
PALM SPRINGS   PTCLDY    70  48  45 NW14      29.76S
EL CENTRO NAS  CLEAR     68  52  56 SW7       29.75R
IMPERIAL       CLEAR     69  57  65 S5        29.73R
BLYTHE         CLEAR     72  51  47 SW7       29.73F
NEEDLES        CLEAR     77  41  27 SW6       29.74S
$$

NVZ020-UTZ003-041200-
SOUTHERN NEVADA-UTAH

CITY           SKY/WX    TMP DP  RH WIND       PRES   REMARKS
LAS VEGAS      PTCLDY    73  29  19 S12       29.74R
SALT LAKE CITY CLOUDY    59  45  59 S12       29.93S
$$

NMZ009-TXZ055-041200-
NEW MEXICO-WEST TEXAS

CITY           SKY/WX    TMP DP  RH WIND       PRES   REMARKS
ALBUQUERQUE    PTCLDY    59  41  51 NE10      30.00F
EL PASO        PTCLDY    67  46  47 N10       29.90R
$$


........................KEY........................
SKY/WX - SKY CONDITION/WEATHER
TMP    - TEMPERATURE IN FAHRENHEIT
DP     - DEW POINT IN FAHRENHEIT
RH     - RELATIVE HUMIDITY IN PERCENT
WIND   - DIRECTION AND SPEED IN MILES PER HOUR (MPH)
VRB    - VARIABLE WIND DIRECTION
PRES   - MEAN SEA LEVEL PRESSURE IN INCHES OF MERCURY
         F - FALLING PRESSURE   R - RISING PRESSURE
         S - STEADY PRESSURE
VSB    - VISIBILITY IN MILES
HX     - HEAT INDEX IN FAHRENHEIT
WCI    - WIND CHILL INDEX IN FAHRENHEIT
TC     - TEMPERATURE IN CELSIUS WHICH IS ALSO KNOWN AS
         TEMPERATURE IN CENTIGRADE
AFB    - AIR FORCE BASE
         LUKE AFB IS LUKE AIR FORCE BASE
         DAVIS-MONTHAN IS DAVIS-MONTHAN AIR FORCE BASE
NAS    - NAVAL AIR STATION
         EL CENTRO NAS IS EL CENTRO NAVAL AIR STATION
N/A    - NOT AVAILABLE




USA.gov is the U.S. government's official web portal to all federal, state and local government web resources and services.